This demonstration page uses our WeatherBlox Daily Observations layout. Learn more.

Left ArrowRight Arrow

Hourly Observations for August 13, 2020

Temp ( °F °C ) Dew Point ( °F °C ) Humidity (%) Winds ( mph kmh ) Pressure ( in mb ) Visibility ( mi km ) Precip ( " mm )
12:52 am 00:52 Clear 74 23.3 69 20.6 85 85 SE 8 13 29.98 1015 10 16 0.00 0.00
1:52 am 01:52 Clear 73 22.8 68 20 84 84 SE 7 11 29.96 1015 10 16 0.00 0.00
2:52 am 02:52 Clear 72 22.2 69 20.6 91 91 SE 8 13 29.96 1014 10 16 0.00 0.00
3:52 am 03:52 Clear 71 21.7 69 20.6 94 94 SE 9 15 29.95 1014 10 16 0.00 0.00
4:52 am 04:52 Mostly Clear 70 21.1 69 20.6 97 97 SSW 3 6 29.97 1015 10 16 0.00 0.00
5:05 am 05:05 Mostly Cloudy 70 21.1 69 20.6 97 97 SSW 3 6 29.98 1015 10 16 0.00 0.00
5:36 am 05:36 Cloudy 70 21.1 70 21.1 100 100 S 8 13 29.99 1016 8 13 0.00 0.00
5:52 am 05:52 Cloudy with Mist and Fog 70 21.1 70 21.1 100 100 S 6 9 30.00 1016 5 8 0.00 0.00
6:15 am 06:15 Cloudy with Mist and Fog 70 21.1 70 21.1 100 100 S 8 13 29.99 1016 2 3 0.00 0.00
6:25 am 06:25 Mostly Cloudy with Fog 70 21.1 70 21.1 100 100 S 6 9 29.99 1016 0 0 0.00 0.00
6:49 am 06:49 Mostly Cloudy with Mist and Fog 70 21 70 21 100 100 S 7 11 29.99 1016 1 1 0.00 0.00
6:52 am 06:52 Mostly Cloudy with Mist and Fog 70 21.1 70 21.1 100 100 S 6 9 29.99 1016 1 1 0.00 0.00
7:34 am 07:34 Cloudy with Mist and Fog 70 21.1 70 21.1 100 100 SSE 10 17 29.98 1015 2 3 0.00 0.00
7:42 am 07:42 Cloudy with Mist and Fog 70 21.1 70 21.1 100 100 SSE 8 13 29.98 1015 2 3 0.00 0.00
7:52 am 07:52 Cloudy with Mist and Fog 71 21.7 71 21.7 100 100 SSE 8 13 29.98 1015 3 5 0.00 0.00
8:30 am 08:30 Cloudy 72 22.2 71 21.7 97 97 SSE 10 17 29.98 1015 10 16 0.00 0.00
8:52 am 08:52 Mostly Cloudy 74 23.3 71 21.7 91 91 SE 10 17 30.00 1016 10 16 0.00 0.00
9:42 am 09:42 Mostly Cloudy 77 25 71 21.7 82 82 SE 10 17 29.97 1015 10 16 0.00 0.00
9:52 am 09:52 Mostly Cloudy 76 24.4 71 21.7 85 85 SSE 9 15 30.00 1016 10 16 0.00 0.00
10:04 am 10:04 Partly Cloudy 77 25 71 21.7 82 82 SE 6 9 29.98 1015 10 16 0.00 0.00
10:32 am 10:32 Mostly Cloudy 78 25.6 71 21.7 79 79 S 7 11 29.99 1016 10 16 0.00 0.00
10:52 am 10:52 Mostly Cloudy 78 25.6 71 21.7 79 79 SSE 3 6 30.01 1016 10 16 0.00 0.00
11:03 am 11:03 Partly Cloudy 78 25.6 71 21.7 79 79 VRB 3 6 30.00 1016 10 16 0.00 0.00
11:41 am 11:41 Mostly Cloudy 82 27.8 72 22.2 72 72 VRB 5 7 29.97 1015 10 16 0.00 0.00
11:52 am 11:52 Mostly Cloudy 82 27.8 70 21.1 67 67 SE 6 9 29.99 1016 10 16 0.00 0.00
12:08 pm 12:08 Partly Cloudy 82 27.8 70 21.1 67 67 S 6 9 29.95 1014 10 16 0.00 0.00
12:52 pm 12:52 Mostly Sunny 83 28.3 70 21.1 65 65 SE 13 20 29.94 1014 10 16 0.00 0.00
1:52 pm 13:52 Sunny 86 30 69 20.6 57 57 SSE 9 15 29.93 1013 10 16 0.00 0.00
2:52 pm 14:52 Partly Cloudy 87 30.6 70 21.1 57 57 VRB 6 9 29.92 1013 10 16 0.00 0.00
3:52 pm 15:52 Partly Cloudy 88 31.1 68 20 52 52 SSE 9 15 29.91 1013 10 16 0.00 0.00
4:52 pm 16:52 Sunny 88 31.1 67 19.4 50 50 SSE 7 11 29.91 1013 10 16 0.00 0.00
5:52 pm 17:52 Mostly Sunny 86 30 68 20 55 55 ESE 6 9 29.91 1013 10 16 0.00 0.00
6:52 pm 18:52 Sunny 86 30 68 20 55 55 SSE 5 7 29.91 1013 10 16 0.00 0.00
7:52 pm 19:52 Sunny 84 28.9 68 20 59 59 Calm 29.92 1013 10 16 0.00 0.00
8:52 pm 20:52 Clear 79 26.1 68 20 69 69 Calm 29.93 1013 10 16 0.00 0.00
9:52 pm 21:52 Clear 75 23.9 69 20.6 82 82 E 6 9 29.94 1014 10 16 0.00 0.00
10:52 pm 22:52 Clear 76 24.4 69 20.6 79 79 SE 6 9 29.94 1014 10 16 0.00 0.00
11:52 pm 23:52 Clear 75 23.9 68 20 79 79 SE 5 7 29.94 1014 10 16 0.00 0.00

Powered by AerisWeather